Tracking 30970 objects as of 3-Jul-2025
HD Live streaming from Space Station
objects crossing your sky now

DIADEME 2

Track DIADEME 2 now!
10-day predictions
DIADEME 2 is classified as:


NORAD ID: 2680
Int'l Code: 1967-014A
Perigee: 586.1 km
Apogee: 1,639.5 km
Inclination: 39.4 °
Period: 107.4 minutes
Semi major axis: 7483 km
RCS: 0.6374 m2 (medium)
Launch date: February 15, 1967
Source: France (FR)
Launch site: HAMMA GUIRA SPACE TRACK RANGE (HGSTR)
Your satellite tracking list
Your tracking list is empty




NASA's NSSDC Master Catalog

Two Line Element Set (TLE):
1 02680U 67014A   25183.43515853  .00000383  00000-0  18100-3 0  9994
2 02680  39.4389 214.5684 0703795 208.0035 148.1074 13.40974516828994
Source of the keplerian elements: AFSPC